Lakeland Region, FL

8:22 AM EDT on June 22, 2017 (GMT -0400)
Lakeland Linder Regional

Weather History for KLAL - February, 2014

Change the Weather History Date:

Saturday, February 1, 2014

  Actual Average Record
Temperature  
Mean Temperature 66 °F -  
Max Temperature 77 °F 69 °F 86 °F (2002)
Min Temperature 55 °F 50 °F 39 °F (2009)
Cooling Degree Days 1    
Growing Degree Days 16 (Base 50)    
Moisture  
Dew Point 63 °F    
Average Humidity 95    
Maximum Humidity 100    
Minimum Humidity 26    
Precipitation  
Precipitation 0.00 in - - ()
Sea Level Pressure  
Sea Level Pressure 30.10 in    
Wind  
Wind Speed 4 mph (ESE)    
Max Wind Speed 9 mph    
Max Gust Speed -    
Visibility 4 miles    
Events Fog , Rain    
Averages and records for this station are not official NWS values.
T = Trace of Precipitation, MM = Missing Value Source: NWS Daily Summary

Daily Weather History Graph

Daily Weather History Graph

Search for Another Location

Airport or City:

Trip Planner

Search our weather history database for the weather conditions in past years. The results will help you decide how hot, cold, wet, or windy it might be!

Date:

Astronomy

Feb. 01, 2014 Rise Set
Actual Time 7:15 AM EST 6:08 PM EST
Civil Twilight 6:50 AM EST 6:33 PM EST
Nautical Twilight 6:22 AM EST 7:01 PM EST
Astronomical Twilight 5:54 AM EST 7:28 PM EST
Moon 8:18 AM EST (2/1) 8:25 PM EST (2/1)
Length of Visible Light 11h 42m
Length of Day
10h 53m
Waxing Crescent, 5% of the Moon is Illuminated
Feb 1
Waxing Crescent
Feb 6
First Quarter
Feb 14
Full
Feb 22
Last Quarter
Mar 1
New

Hourly Weather History & Observations

Time (EST) Temp. Dew Point Humidity Pressure Visibility Wind Dir Wind Speed Gust Speed Precip Events Conditions
12:15 AM 59.0 °F 59.0 °F 100% 30.09 in 3.0 mi NNE 5.8 mph - N/A Rain Rain
12:35 AM 59.0 °F 59.0 °F 100% 30.09 in 4.0 mi NNE 3.5 mph - N/A Rain Rain
12:55 AM 59.0 °F 59.0 °F 100% 30.08 in 5.0 mi NE 6.9 mph - N/A Rain Rain
1:15 AM 59.0 °F 59.0 °F 100% 30.08 in 5.0 mi ENE 4.6 mph - N/A   Light Drizzle
1:35 AM 60.8 °F 60.8 °F 100% 30.08 in 5.0 mi East 5.8 mph - N/A   Overcast
1:55 AM 60.8 °F 60.8 °F 100% 30.07 in 10.0 mi ENE 8.1 mph - N/A   Overcast
2:15 AM 60.8 °F 60.8 °F 100% 30.08 in 10.0 mi ENE 6.9 mph - N/A   Overcast
2:35 AM 60.8 °F 60.8 °F 100% 30.08 in 7.0 mi ENE 3.5 mph - N/A   Overcast
2:55 AM 60.8 °F 60.8 °F 100% 30.07 in 5.0 mi East 4.6 mph - N/A   Overcast
3:15 AM 60.8 °F 60.8 °F 100% 30.06 in 2.5 mi East 6.9 mph - N/A   Overcast
3:35 AM 59.0 °F 59.0 °F 100% 30.06 in 0.5 mi ESE 4.6 mph - N/A Fog Fog
3:55 AM 60.8 °F 60.8 °F 100% 30.06 in 0.5 mi Calm Calm - N/A Fog Fog
4:15 AM 60.8 °F 60.8 °F 100% 30.07 in 0.2 mi Calm Calm - N/A Fog Fog
4:35 AM 60.8 °F 60.8 °F 100% 30.06 in 0.2 mi Calm Calm - N/A Fog Fog
4:55 AM 60.8 °F 60.8 °F 100% 30.07 in 0.2 mi Calm Calm - N/A Fog Fog
5:15 AM 60.8 °F 60.8 °F 100% 30.07 in 0.2 mi Calm Calm - N/A Fog Fog
5:35 AM 60.8 °F 60.8 °F 100% 30.07 in 0.2 mi Calm Calm - N/A Fog Fog
5:54 AM 62.6 °F 62.6 °F 100% 30.08 in 0.2 mi North - - N/A Fog Fog
6:50 AM 62.6 °F 62.6 °F 100% 30.10 in 0.2 mi North - - N/A Fog Fog
7:50 AM 62.6 °F 62.6 °F 100% 30.11 in 3.0 mi North - - N/A Fog Fog
8:51 AM 64.4 °F 64.4 °F 100% 30.13 in 2.0 mi Calm Calm - N/A   Mostly Cloudy
9:54 AM 68.0 °F 68.0 °F 100% 30.15 in 4.0 mi Calm Calm - N/A   Mostly Cloudy
10:25 AM 68.0 °F 68.0 °F 100% 30.15 in 4.0 mi Calm Calm - N/A   Overcast
10:50 AM 68.0 °F 68.0 °F 100% 30.15 in 10.5 mi Calm Calm - N/A   Overcast
11:50 AM 71.6 °F 71.6 °F 100% 30.15 in 3.0 mi SE 6.9 mph - N/A   Overcast
12:45 PM 55.4 °F 21.2 °F 26% 30.13 in 10.0 mi ESE 6.9 mph - N/A   Overcast
12:55 PM 75.2 °F 71.6 °F 89% 30.11 in 7.0 mi South 9.2 mph - N/A   Overcast
1:50 PM 75.2 °F 71.6 °F 89% 30.10 in 7.0 mi South 8.1 mph - N/A   Overcast
2:50 PM 75.2 °F 71.6 °F 89% 30.09 in 10.0 mi South 6.9 mph - N/A   Overcast
3:45 PM 77.0 °F 68.0 °F 74% 30.08 in 10.0 mi South 8.1 mph - N/A   Overcast
4:50 PM 77.0 °F 66.2 °F 69% 30.09 in 10.0 mi SSW 4.6 mph - N/A   Mostly Cloudy
5:50 PM 75.2 °F 66.2 °F 73% 30.10 in 10.0 mi Calm Calm - N/A   Mostly Cloudy
6:45 PM 71.6 °F 68.0 °F 88% 30.11 in 10.0 mi Calm Calm - N/A   Mostly Cloudy
7:50 PM 69.8 °F 69.8 °F 100% 30.12 in 10.0 mi Calm Calm - N/A   Mostly Cloudy
8:50 PM 68.0 °F 68.0 °F 100% 30.13 in 10.0 mi Calm Calm - N/A   Mostly Cloudy
9:45 PM 68.0 °F 68.0 °F 100% 30.14 in 5.0 mi Calm Calm - N/A   Overcast
9:55 PM 66.2 °F 66.2 °F 100% 30.14 in 0.2 mi Calm Calm - N/A Fog Fog
10:15 PM 66.2 °F 66.2 °F 100% 30.14 in 0.2 mi Calm Calm - N/A Fog Fog
10:35 PM 66.2 °F 66.2 °F 100% 30.15 in 2.0 mi SE 3.5 mph - N/A   Overcast
10:55 PM 66.2 °F 66.2 °F 100% 30.15 in 2.5 mi East 3.5 mph - N/A   Overcast
11:15 PM 66.2 °F 66.2 °F 100% 30.15 in 1.8 mi Calm Calm - N/A   Overcast
11:35 PM 66.2 °F 66.2 °F 100% 30.14 in 0.5 mi Calm Calm - N/A Fog Fog
11:55 PM 64.4 °F 64.4 °F 100% 30.14 in 1.0 mi Calm Calm - N/A   Overcast